Hourly Data Report for June 03, 2004

TORONTO CITY
ONTARIO

43°40'00.000" N
79°24'00.000" W
112.50 m
6158355
71508
XTO

Download Data

Hourly Data (June 2004)
Hourly Data Report for June 3, 2004
TIME
LST
Temp Definition
°C
Dew Point Definition
°C
Rel Hum Definition
%
Precip. Amount Definition
mm

Wind Dir Definition
10's deg

Wind Spd Definition
km/h
Visibility Definition
km
Stn Press Definition
kPa
Hmdx Definition


Wind Chill Definition


Weather Definition


00:00 13.8 8.7 71   LegendMM LegendMM LegendMM 100.12     LegendNANA
01:00 12.9 9.0 77   LegendMM LegendMM LegendMM 100.12     LegendNANA
02:00 12.2 8.9 80   LegendMM LegendMM LegendMM 100.14     LegendNANA
03:00 12.4 8.7 78   LegendMM LegendMM LegendMM 100.19     LegendNANA
04:00 12.3 8.5 78   LegendMM LegendMM LegendMM 100.26     LegendNANA
05:00 12.2 8.4 78   LegendMM LegendMM LegendMM 100.35     LegendNANA
06:00 12.3 8.9 80   LegendMM LegendMM LegendMM 100.43     LegendNANA
07:00 13.7 9.6 76   LegendMM LegendMM LegendMM 100.47     LegendNANA
08:00 15.7 9.8 68   LegendMM LegendMM LegendMM 100.49     LegendNANA
09:00 17.8 9.8 59   LegendMM LegendMM LegendMM 100.50     LegendNANA
10:00 19.4 11.1 59   LegendMM LegendMM LegendMM 100.51     LegendNANA
11:00 18.7 11.2 62   LegendMM LegendMM LegendMM 100.55     LegendNANA
12:00 19.1 10.8 59   LegendMM LegendMM LegendMM 100.57     LegendNANA
13:00 18.5 7.7 49   LegendMM LegendMM LegendMM 100.62     LegendNANA
14:00 18.0 1.7 33   LegendMM LegendMM LegendMM 100.64     LegendNANA
15:00 18.1 2.5 35   LegendMM LegendMM LegendMM 100.64     LegendNANA
16:00 17.5 4.6 42   LegendMM LegendMM LegendMM 100.68     LegendNANA
17:00 16.7 4.2 43   LegendMM LegendMM LegendMM 100.72     LegendNANA
18:00 16.1 4.0 44   LegendMM LegendMM LegendMM 100.78     LegendNANA
19:00 15.7 3.9 45   LegendMM LegendMM LegendMM 100.85     LegendNANA
20:00 14.7 3.6 47   LegendMM LegendMM LegendMM 100.91     LegendNANA
21:00 14.1 3.5 49   LegendMM LegendMM LegendMM 100.98     LegendNANA
22:00 13.2 2.9 50   LegendMM LegendMM LegendMM 101.02     LegendNANA
23:00 12.3 3.3 54   LegendMM LegendMM LegendMM 101.05     LegendNANA

Notes on Data Quality.

Legend

  • E = Estimated
  • M = Missing
  • NA = Not Available*
  • [empty] = Indicates an unobserved value
Date modified: